EW3230 West Wareham MA US current weather conditions

sailwx.info

Wind from 224 at 1 knots gusting 4

Air temperature 26.7° C
Dewpoint 23.5° C

Last reported at 2019-Aug-21 20:03 UTC.
Time now 2019-Aug-21 20:21 UTC

Location: N 41°48' W 070°47'.
View on Google Maps.

See reports from other nearby stations

  
Tides and Currents Weather Stations Pressure Air Temp Water Temp Dewpoint Dewpoint Depression Visibility Wind Speed Wind Dir Waves Ship Positions
date/time (UTC)wind fromknots sea level pressurealtimeterstation pressurevisibilityair tempwater tempwave heightnotes
2019-Aug-21 20:03 224 1 gusting 4 26.7
2019-Aug-21 19:53 217 1 gusting 4 26.7
2019-Aug-21 19:43 243 2 gusting 6 26.7
2019-Aug-21 19:33 185 2 gusting 4 26.7
2019-Aug-21 19:23 207 2 gusting 6 27.2
2019-Aug-21 19:13 186 1 gusting 3 27.2
2019-Aug-21 19:03 165 1 gusting 4 27.2
2019-Aug-21 18:53 231 1 gusting 6 27.8
2019-Aug-21 18:43 209 1 gusting 4 27.8
2019-Aug-21 18:33 191 1 gusting 4 27.8
2019-Aug-21 18:22 167 1 gusting 3 27.8
2019-Aug-21 18:12 158 0 gusting 2 27.2
2019-Aug-21 18:02 183 0 gusting 2 27.2
2019-Aug-21 17:52 216 0 gusting 2 27.2
2019-Aug-21 17:42 204 1 gusting 2 27.2
2019-Aug-21 17:32 237 0 gusting 2 26.7
2019-Aug-21 17:22 188 0 gusting 1 26.7
2019-Aug-21 17:12 146 0 gusting 2 26.1
2019-Aug-21 17:02 145 26.1
2019-Aug-21 16:52 221 0 gusting 2 25.6
2019-Aug-21 16:42 134 0 gusting 2 26.1
2019-Aug-21 16:32 187 25.6
2019-Aug-21 16:22 179 0 gusting 3 25.6
2019-Aug-21 16:12 091 26.1
2019-Aug-21 16:02 215 0 gusting 4 26.1
2019-Aug-21 15:52 162 26.7
2019-Aug-21 15:42 184 26.7
2019-Aug-21 15:32 149 26.7
2019-Aug-21 15:22 148 26.7
2019-Aug-21 15:12 203 26.7
2019-Aug-21 15:02 173 26.7
2019-Aug-21 14:52 150 26.7
2019-Aug-21 14:42 121 26.7
2019-Aug-21 14:32 195 0 gusting 2 26.7
2019-Aug-21 14:22 211 0 gusting 2 26.7
2019-Aug-21 14:12 155 26.7
2019-Aug-21 14:02 174 26.7
2019-Aug-21 13:52 197 26.1
2019-Aug-21 13:42 195 26.1
2019-Aug-21 13:32 124 26.1
2019-Aug-21 13:22 210 25.6
2019-Aug-21 13:12 159 25.6
2019-Aug-21 13:02 203 25.6
2019-Aug-21 12:52 224 25.0
2019-Aug-21 12:42 210 24.4
2019-Aug-21 12:32 194 24.4
2019-Aug-21 12:22 198 23.9
2019-Aug-21 12:12 198 23.3
2019-Aug-21 12:02 209 22.8
2019-Aug-21 11:52 170 22.8
2019-Aug-21 11:42 170 22.2
2019-Aug-21 11:32 170 21.7
2019-Aug-21 11:22 170 21.7
2019-Aug-21 11:12 170 21.1
2019-Aug-21 11:02 170 21.1
2019-Aug-21 10:57 170 20.6
2019-Aug-21 10:42 170 20.0
2019-Aug-21 10:32 170 19.4
2019-Aug-21 10:22 170 19.4
2019-Aug-21 10:12 170 19.4
2019-Aug-21 10:02 170 19.4
2019-Aug-21 09:52 170 19.4
2019-Aug-21 09:42 170 19.4
2019-Aug-21 09:32 170 19.4
2019-Aug-21 09:22 170 19.4
2019-Aug-21 09:12 170 19.4
2019-Aug-21 09:02 170 19.4
2019-Aug-21 08:52 170 19.4
2019-Aug-21 08:42 170 19.4
2019-Aug-21 08:32 171 19.4
2019-Aug-21 08:22 170 19.4
2019-Aug-21 08:12 170 18.9
2019-Aug-21 08:02 170 18.9
2019-Aug-21 07:52 170 18.9
2019-Aug-21 07:42 170 19.4
2019-Aug-21 07:32 170 18.9
2019-Aug-21 07:22 170 19.4
2019-Aug-21 07:12 170 18.9
2019-Aug-21 07:02 170 19.4
2019-Aug-21 06:52 170 19.4
2019-Aug-21 06:42 170 19.4
2019-Aug-21 06:32 171 19.4
2019-Aug-21 06:22 171 19.4
2019-Aug-21 06:12 170 19.4
2019-Aug-21 06:02 170 19.4
2019-Aug-21 05:52 170 19.4
2019-Aug-21 05:42 170 19.4
2019-Aug-21 05:32 170 19.4
2019-Aug-21 05:22 170 19.4
2019-Aug-21 05:12 171 19.4
2019-Aug-21 05:02 171 19.4
2019-Aug-21 04:52 170 19.4
2019-Aug-21 04:42 170 19.4
2019-Aug-21 04:32 170 20.0
2019-Aug-21 04:22 170 20.0
2019-Aug-21 04:12 170 20.0
2019-Aug-21 04:02 170 20.0
2019-Aug-21 03:52 170 20.0
2019-Aug-21 03:42 170 20.6
2019-Aug-21 03:32 171 20.6
2019-Aug-21 03:22 170 20.6
2019-Aug-21 03:12 171 20.6
2019-Aug-21 03:02 171 20.6
2019-Aug-21 02:52 170 20.6
2019-Aug-21 02:42 148 21.1
2019-Aug-21 02:32 148 21.1
2019-Aug-21 02:22 148 21.1
2019-Aug-21 02:12 148 21.1
2019-Aug-21 02:02 148 21.1
2019-Aug-21 01:52 148 21.1
2019-Aug-21 01:42 148 21.1
2019-Aug-21 01:32 148 21.1
2019-Aug-21 01:22 148 21.7
2019-Aug-21 01:12 148 21.7
2019-Aug-21 01:02 148 21.7
2019-Aug-21 00:52 148 21.7
2019-Aug-21 00:42 148 22.2
2019-Aug-21 00:32 148 22.2
2019-Aug-21 00:22 148 22.8
2019-Aug-21 00:12 148 23.3
2019-Aug-21 00:02 148 23.3
2019-Aug-20 23:52 148 23.9
2019-Aug-20 23:42 148 24.4
2019-Aug-20 23:32 148 24.4
2019-Aug-20 23:22 148 25.0
2019-Aug-20 23:12 148 25.6
2019-Aug-20 23:02 148 25.6
2019-Aug-20 22:52 148 25.6
2019-Aug-20 22:42 148 26.1
2019-Aug-20 22:32 148 26.7
2019-Aug-20 22:22 148 26.7
2019-Aug-20 22:12 141 26.7
2019-Aug-20 22:02 134 27.2
2019-Aug-20 21:52 139 27.2
2019-Aug-20 21:42 143 0 gusting 0 27.8
2019-Aug-20 21:32 145 28.9
2019-Aug-20 21:22 172 28.9
2019-Aug-20 21:12 134 28.9
2019-Aug-20 21:02 141 0 gusting 1 28.9
2019-Aug-20 20:52 159 0 gusting 1 28.9
2019-Aug-20 20:42 136 28.9
2019-Aug-20 20:32 131 0 gusting 1 28.9
2019-Aug-20 20:22 158 0 gusting 1 28.9
2019-Aug-20 20:12 153 0 gusting 1 28.9
2019-Aug-20 20:02 190 29.4
2019-Aug-20 19:52 211 0 gusting 1 28.9
2019-Aug-20 19:42 198 28.9
2019-Aug-20 19:32 140 28.9
2019-Aug-20 19:21 132 0 gusting 2 28.3
2019-Aug-20 19:11 155 0 gusting 2 28.9
2019-Aug-20 19:01 117 0 gusting 1 28.9
2019-Aug-20 18:51 224 29.4
2019-Aug-20 18:41 159 29.4
2019-Aug-20 18:31 188 29.4
2019-Aug-20 18:21 044 29.4
2019-Aug-20 18:11 302 29.4
2019-Aug-20 18:01 295 30.0
2019-Aug-20 17:51 131 30.6
2019-Aug-20 17:41 177 30.6
2019-Aug-20 17:31 080 30.0
2019-Aug-20 17:21 245 0 gusting 2 30.6
2019-Aug-20 17:11 245 30.6
2019-Aug-20 17:01 266 0 gusting 3 30.0
2019-Aug-20 16:51 188 29.4
2019-Aug-20 16:41 309 1 gusting 5 28.9
2019-Aug-20 16:31 084 1 gusting 5 28.9
2019-Aug-20 16:21 333 0 gusting 1 28.9
2019-Aug-20 16:11 080 0 gusting 4 28.3
2019-Aug-20 16:01 319 0 gusting 2 28.3
2019-Aug-20 15:51 074 0 gusting 2 28.3
2019-Aug-20 15:41 056 27.8
2019-Aug-20 15:31 074 0 gusting 3 27.8
2019-Aug-20 15:21 046 0 gusting 5 27.2
2019-Aug-20 15:11 136 0 gusting 2 27.2
2019-Aug-20 15:01 214 27.8
2019-Aug-20 14:51 245 27.2
2019-Aug-20 14:41 250 27.2
2019-Aug-20 14:31 310 0 gusting 3 26.7
2019-Aug-20 14:21 243 26.1
2019-Aug-20 14:11 236 0 gusting 2 26.1
2019-Aug-20 14:01 114 25.6
2019-Aug-20 13:51 090 25.0
2019-Aug-20 13:41 349 25.0
2019-Aug-20 13:31 316 24.4
2019-Aug-20 13:21 232 23.9
2019-Aug-20 13:11 229 0 gusting 3 23.9
2019-Aug-20 13:01 333 22.8
2019-Aug-20 12:51 293 22.2
2019-Aug-20 12:41 262 21.7
2019-Aug-20 12:31 239 21.1
2019-Aug-20 12:21 228 21.1
2019-Aug-20 12:11 262 21.1
2019-Aug-20 12:01 225 21.1
2019-Aug-20 11:51 225 21.1
2019-Aug-20 11:41 225 20.6
2019-Aug-20 11:31 225 20.6
2019-Aug-20 11:21 225 20.6
2019-Aug-20 11:11 225 20.0
2019-Aug-20 11:01 225 20.0
2019-Aug-20 10:51 225 20.0
2019-Aug-20 10:41 225 19.4
2019-Aug-20 10:31 225 19.4
2019-Aug-20 10:21 225 20.0
2019-Aug-20 10:11 225 20.0
2019-Aug-20 10:01 225 20.0
2019-Aug-20 09:51 225 20.0
2019-Aug-20 09:41 225 20.0
2019-Aug-20 09:31 225 20.0
2019-Aug-20 09:21 225 20.0
2019-Aug-20 09:11 225 20.0
2019-Aug-20 09:01 225 20.0
2019-Aug-20 08:51 225 20.0
2019-Aug-20 08:41 225 20.0
2019-Aug-20 08:31 225 20.0
2019-Aug-20 08:21 224 20.0
2019-Aug-20 08:11 225 20.0
2019-Aug-20 08:01 225 20.0
2019-Aug-20 07:51 225 20.0
2019-Aug-20 07:41 225 20.0
2019-Aug-20 07:31 225 20.0
2019-Aug-20 07:21 225 20.0
2019-Aug-20 07:11 225 20.0
2019-Aug-20 07:01 225 20.0
2019-Aug-20 06:51 225 20.0
2019-Aug-20 06:41 225 20.6
2019-Aug-20 06:31 225 20.6
2019-Aug-20 06:21 225 20.6
2019-Aug-20 06:11 225 20.6
2019-Aug-20 06:01 225 20.6
2019-Aug-20 05:51 225 20.6
2019-Aug-20 05:41 225 20.6
2019-Aug-20 05:31 225 20.6
2019-Aug-20 05:21 226 20.6
2019-Aug-20 05:11 225 20.6
2019-Aug-20 05:01 225 20.6
2019-Aug-20 04:51 225 20.6
2019-Aug-20 04:41 225 20.6
2019-Aug-20 04:31 225 20.6
2019-Aug-20 04:21 225 21.1
2019-Aug-20 04:11 225 21.1
2019-Aug-20 04:01 224 21.1
2019-Aug-20 03:51 225 21.1
2019-Aug-20 03:41 225 21.1
2019-Aug-20 03:31 225 21.1
2019-Aug-20 03:21 225 21.1
2019-Aug-20 03:11 225 21.1
2019-Aug-20 03:01 225 21.1
2019-Aug-20 02:51 225 21.1
2019-Aug-20 02:41 225 21.1
2019-Aug-20 02:31 225 21.1
2019-Aug-20 02:21 225 21.1
2019-Aug-20 02:11 235 21.1
2019-Aug-20 02:01 255 21.1
2019-Aug-20 01:51 254 21.1
2019-Aug-20 01:41 197 21.7
2019-Aug-20 01:31 245 21.7
2019-Aug-20 01:21 231 21.7
2019-Aug-20 01:11 231 21.7
2019-Aug-20 01:01 231 21.7
2019-Aug-20 00:51 231 21.7
2019-Aug-20 00:41 231 21.7
2019-Aug-20 00:31 231 22.2
2019-Aug-20 00:21 236 22.8
2019-Aug-20 00:11 273 23.3
2019-Aug-20 00:01 253 23.9
2019-Aug-19 23:51 233 25.0
2019-Aug-19 23:41 198 25.6
2019-Aug-19 23:31 290 26.1
2019-Aug-19 23:21 212 0 gusting 5 26.7
2019-Aug-19 23:11 264 0 gusting 3 26.7
2019-Aug-19 23:01 203 26.7
2019-Aug-19 22:51 238 0 gusting 4 27.2
2019-Aug-19 22:41 262 0 gusting 1 27.2
2019-Aug-19 22:31 224 27.8
2019-Aug-19 22:21 212 27.8
2019-Aug-19 22:11 214 27.8
2019-Aug-19 22:01 250 28.3
2019-Aug-19 21:51 225 28.9
2019-Aug-19 21:41 228 0 gusting 2 29.4
2019-Aug-19 21:31 228 0 gusting 3 30.0
2019-Aug-19 21:21 260 0 gusting 3 30.6
2019-Aug-19 21:11 148 0 gusting 1 30.6
2019-Aug-19 21:01 205 0 gusting 1 30.6
2019-Aug-19 20:51 226 0 gusting 1 30.6
2019-Aug-19 20:41 204 0 gusting 2 30.6
2019-Aug-19 20:31 228 1 gusting 2 30.6
2019-Aug-19 20:21 226 1 gusting 3 30.6
2019-Aug-19 20:11 195 0 gusting 2 30.6
2019-Aug-19 20:01 197 0 gusting 2 30.6